EW8865 Weather Reports


time (UTC)temp
C
wind
direction
speed
KPH
gust
KPH
rain 1hr
cm
rain 24hr
cm
rain mn
cm
humidity
%
barometer
mb
20260906084505 18 115 3.2 16.1 0.00 0.15 0.15 77 1020.4
20260906084004 18 173 9.7 16.1 0.00 0.15 0.15 76 1020.4
20260906083503 18 128 6.4 16.1 0.00 0.15 0.15 79 1020.4
20260906083003 18 156 9.7 24.1 0.00 0.15 0.15 78 1020.4
20260906082505 17 140 8.0 20.9 0.00 0.15 0.15 80 1020.3
20260906082004 17 143 11.3 19.3 0.00 0.15 0.15 80 1020.4
20260906081504 17 172 4.8 19.3 0.00 0.15 0.15 81 1020.3
20260906080504 17 150 8.0 14.5 0.00 0.15 0.15 81 1020.3
20260906075503 16 181 6.4 11.3 0.00 0.15 0.15 84 1020.3
20260906075003 16 114 6.4 19.3 0.00 0.15 0.15 85 1020.3
20260906074503 16 94 9.7 19.3 0.00 0.15 0.15 88 1020.4
20260906074003 16 121 4.8 8.0 0.00 0.15 0.15 88 1020.5
20260906073503 16 129 4.8 19.3 0.00 0.15 0.15 89 1020.6
20260906072503 15 119 3.2 14.5 0.00 0.15 0.15 92 1020.5
20260906072003 15 124 3.2 4.8 0.00 0.15 0.15 92 1020.4
20260906071003 15 68 1.6 4.8 0.00 0.15 0.15 93 1020.5
20260906070504 14 68 1.6 4.8 0.00 0.15 0.15 93 1020.4
20260906065503 14 64 3.2 4.8 0.00 0.15 0.15 93 1020.4
20260906065003 14 63 3.2 4.8 0.00 0.15 0.15 93 1020.3
20260906064003 13 71 3.2 4.8 0.00 0.15 0.15 93 1020.2
20260906063503 13 71 1.6 4.8 0.00 0.15 0.15 93 1020.2
20260906063003 13 72 1.6 4.8 0.00 0.15 0.15 93 1020.2
20260906062503 13 72 1.6 3.2 0.00 0.15 0.15 93 1020.3
20260906062003 13 72 1.6 3.2 0.00 0.15 0.15 92 1020.4
20260906061504 13 72 0.0 3.2 0.00 0.15 0.15 92 1020.5
20260906061003 13 72 1.6 4.8 0.00 0.15 0.15 92 1020.5
20260906060503 13 55 1.6 3.2 0.00 0.15 0.15 92 1020.5
20260906060004 13 54 0.0 4.8 0.00 0.15 0.15 92 1020.6
20260906055504 13 117 3.2 4.8 0.00 0.15 0.15 92 1020.5
20260906055004 13 121 3.2 4.8 0.00 0.15 0.15 92 1020.5
20260906054503 13 124 0.0 3.2 0.00 0.15 0.15 92 1020.5
20260906054003 13 124 0.0 0.0 0.00 0.15 0.15 92 1020.6
20260906053503 13 124 0.0 0.0 0.00 0.15 0.15 91 1020.6
20260906053003 13 125 0.0 0.0 0.00 0.15 0.15 91 1020.7
20260906052504 13 125 0.0 0.0 0.00 0.15 0.15 91 1020.8
20260906052004 13 125 0.0 0.0 0.00 0.15 0.15 91 1020.8
20260906051504 13 125 0.0 0.0 0.00 0.15 0.15 91 1020.9
20260906051004 13 125 0.0 0.0 0.00 0.15 0.15 91 1020.8
20260906050503 13 125 0.0 0.0 0.00 0.15 0.15 91 1020.8
20260906050004 13 125 0.0 0.0 0.03 0.15 0.15 91 1020.9
20260906045504 13 125 0.0 0.0 0.05 0.15 0.15 91 1021.0
20260906045004 13 124 0.0 3.2 0.05 0.15 0.15 91 1021.0
20260906043004 13 125 0.0 3.2 0.08 0.15 0.15 91 1021.3
20260906042504 13 124 1.6 4.8 0.10 0.15 0.15 91 1021.3
20260906042004 13 125 1.6 3.2 0.10 0.15 0.15 91 1021.3
20260906041004 13 125 3.2 4.8 0.13 0.15 0.15 90 1021.4
20260906040503 13 149 0.0 0.0 0.15 0.15 0.15 90 1021.6
20260906040003 13 149 0.0 0.0 0.13 0.15 0.15 90 1021.6
20260906035503 13 260 0.0 0.0 0.10 0.13 0.13 90 1021.8
20260906034503 13 260 0.0 0.0 0.10 0.13 0.13 90 1022.0
20260906034004 13 260 0.0 0.0 0.10 0.13 0.13 89 1022.2
20260906033504 13 260 0.0 0.0 0.08 0.10 0.10 89 1022.2
20260906033004 13 260 0.0 0.0 0.05 0.08 0.08 89 1022.3
20260906032504 13 260 0.0 0.0 0.05 0.05 0.05 89 1022.4
20260906032004 13 260 0.0 0.0 0.05 0.05 0.05 89 1022.4
20260906031503 13 260 0.0 0.0 0.05 0.05 0.05 89 1022.6
20260906031004 13 260 0.0 0.0 0.03 0.05 0.05 89 1022.7
20260906030503 13 260 0.0 0.0 0.00 0.03 0.03 89 1022.7
20260906030004 13 260 0.0 0.0 0.00 0.03 0.03 89 1022.7
20260906025003 13 260 0.0 0.0 0.00 0.03 0.03 88 1022.6
20260906024503 13 260 0.0 0.0 0.00 0.03 0.03 88 1022.7
20260906024005 13 260 0.0 0.0 0.00 0.03 0.03 88 1022.7
20260906023503 13 260 0.0 0.0 0.00 0.03 0.03 88 1022.8
20260906023004 13 260 0.0 0.0 0.00 0.03 0.03 88 1022.8
20260906022503 13 260 0.0 0.0 0.00 0.03 0.03 88 1022.9
20260906022004 13 260 0.0 0.0 0.00 0.03 0.03 88 1023.0
20260906021503 13 260 0.0 0.0 0.03 0.03 0.03 88 1023.0
20260906021005 13 260 0.0 0.0 0.03 0.03 0.03 88 1023.1
20260906020504 13 260 0.0 0.0 0.03 0.03 0.03 87 1023.1
20260906020003 13 260 0.0 0.0 0.03 0.03 0.03 87 1023.1
20260906015504 13 260 0.0 0.0 0.03 0.03 0.03 87 1023.1
20260906014504 13 260 0.0 0.0 0.03 0.03 0.03 87 1023.2
20260906014004 13 260 0.0 0.0 0.03 0.03 0.03 87 1023.3
20260906013503 13 260 0.0 0.0 0.03 0.03 0.03 87 1023.4
20260906013005 13 260 0.0 0.0 0.03 0.03 0.03 87 1023.4
20260906012504 13 260 0.0 0.0 0.03 0.03 0.03 87 1023.4
20260906012004 13 260 0.0 0.0 0.03 0.03 0.03 86 1023.5
20260906011503 13 260 0.0 0.0 0.00 0.00 0.00 86 1023.6
20260906011003 13 261 0.0 0.0 0.00 0.00 0.00 86 1023.6
20260906010503 13 261 0.0 0.0 0.00 0.00 0.00 86 1023.6
20260906005504 13 261 0.0 0.0 0.00 0.00 0.00 86 1023.8
20260906005004 13 260 0.0 0.0 0.00 0.00 0.00 86 1023.8
20260906004504 13 260 0.0 0.0 0.00 0.00 0.00 86 1023.8
20260906004004 13 260 0.0 0.0 0.00 0.00 0.00 85 1023.9
20260906003504 13 260 0.0 0.0 0.00 0.00 0.00 85 1023.9
20260906003003 13 260 0.0 0.0 0.00 0.00 0.00 85 1024.0
20260906002504 13 260 0.0 0.0 0.00 0.00 0.00 85 1024.1
20260906001504 13 260 0.0 0.0 0.00 0.00 0.00 85 1024.1
20260906000505 13 260 0.0 0.0 0.00 0.00 0.00 84 1024.2
20260905235003 13 260 0.0 0.0 0.00 0.00 0.00 84 1024.3
20260905234504 13 261 0.0 0.0 0.00 0.00 0.00 84 1024.3
20260905234004 13 260 0.0 0.0 0.00 0.00 0.00 84 1024.3
20260905233503 13 261 0.0 0.0 0.00 0.00 0.00 84 1024.3
20260905233004 13 261 0.0 0.0 0.00 0.00 0.00 84 1024.3
20260905232504 13 245 0.0 0.0 0.00 0.00 0.00 84 1024.4
20260905231504 13 245 0.0 0.0 0.00 0.00 0.00 83 1024.4
20260905231004 13 245 0.0 0.0 0.00 0.00 0.00 83 1024.4
20260905230505 13 245 0.0 0.0 0.00 0.00 0.00 83 1024.4
20260905230003 13 245 0.0 0.0 0.00 0.00 0.00 83 1024.4
20260905225503 13 245 0.0 0.0 0.00 0.00 0.00 83 1024.5
20260905225003 13 245 0.0 0.0 0.00 0.00 0.00 83 1024.5
20260905224504 13 245 0.0 0.0 0.00 0.00 0.00 83 1024.5
20260905224004 13 245 0.0 0.0 0.00 0.00 0.00 83 1024.5
20260905223004 13 245 0.0 0.0 0.00 0.00 0.00 82 1024.4
20260905222004 13 245 0.0 0.0 0.00 0.00 0.00 82 1024.4
20260905221504 13 245 0.0 0.0 0.00 0.00 0.00 82 1024.3
20260905221004 13 244 0.0 0.0 0.00 0.00 0.00 82 1024.4
20260905220004 13 244 0.0 0.0 0.00 0.00 0.00 81 1024.5
20260905215504 13 244 0.0 0.0 0.00 0.00 0.00 81 1024.5
20260905215004 13 244 0.0 0.0 0.00 0.00 0.00 81 1024.5
20260905214504 13 244 0.0 0.0 0.00 0.00 0.00 81 1024.5
20260905214004 13 244 0.0 0.0 0.00 0.00 0.00 81 1024.5
20260905213504 13 244 0.0 0.0 0.00 0.00 0.00 80 1024.5
20260905213004 13 244 0.0 0.0 0.00 0.00 0.00 80 1024.4
20260905212504 13 244 0.0 0.0 0.00 0.00 0.00 80 1024.5
20260905212003 13 245 0.0 0.0 0.00 0.00 0.00 80 1024.5
20260905211504 13 245 0.0 0.0 0.00 0.00 0.00 79 1024.4
20260905211003 13 245 0.0 3.2 0.00 0.00 0.00 79 1024.4
20260905210003 13 245 3.2 4.8 0.00 0.00 0.00 79 1024.6
20260905205003 13 293 0.0 0.0 0.00 0.00 0.00 80 1024.5
20260905204504 13 293 0.0 0.0 0.00 0.00 0.00 79 1024.4
20260905204003 13 293 0.0 0.0 0.00 0.00 0.00 79 1024.4
20260905203504 13 293 0.0 0.0 0.00 0.00 0.00 79 1024.3
20260905203003 13 293 0.0 0.0 0.00 0.00 0.00 79 1024.3
20260905202503 13 293 0.0 1.6 0.00 0.00 0.00 79 1024.3
20260905202003 13 294 1.6 3.2 0.00 0.00 0.00 78 1024.3
20260905201503 14 295 1.6 4.8 0.00 0.00 0.00 77 1024.2
20260905201004 14 254 3.2 4.8 0.00 0.00 0.00 76 1024.1
20260905200504 14 254 1.6 3.2 0.00 0.00 0.00 75 1024.1
20260905200004 14 254 3.2 4.8 0.00 0.00 0.00 75 1024.1
20260905195503 14 254 3.2 4.8 0.00 0.00 0.00 75 1024.1
20260905195004 14 254 1.6 3.2 0.00 0.00 0.00 74 1024.1
20260905194504 15 254 1.6 4.8 0.00 0.00 0.00 74 1024.1
20260905194004 15 254 3.2 4.8 0.00 0.00 0.00 74 1024.2
20260905193503 15 254 0.0 3.2 0.00 0.00 0.00 73 1024.1
20260905193004 15 254 0.0 0.0 0.00 0.00 0.00 73 1024.1
20260905191503 15 254 0.0 4.8 0.00 0.00 0.00 72 1023.9
20260905191004 15 254 3.2 4.8 0.00 0.00 0.00 72 1023.9
20260905190504 15 260 3.2 9.7 0.00 0.00 0.00 72 1024.0
20260905190004 15 257 8.0 11.3 0.00 0.00 0.00 71 1024.1
20260905185504 15 238 4.8 12.9 0.00 0.00 0.00 71 1024.1
20260905184503 16 245 8.0 11.3 0.00 0.00 0.00 70 1024.1
20260905184003 16 248 8.0 12.9 0.00 0.00 0.00 70 1024.1
20260905183504 16 262 4.8 9.7 0.00 0.00 0.00 69 1024.0
20260905183004 16 269 4.8 4.8 0.00 0.00 0.00 68 1024.1
20260905182504 16 269 3.2 11.3 0.00 0.00 0.00 67 1024.2
20260905182003 16 265 4.8 9.7 0.00 0.00 0.00 67 1024.2
20260905181503 17 265 4.8 9.7 0.00 0.00 0.00 66 1024.2
20260905181004 17 275 4.8 9.7 0.00 0.00 0.00 65 1024.2
20260905180504 17 265 4.8 12.9 0.00 0.00 0.00 64 1024.2
20260905180004 17 267 8.0 11.3 0.00 0.00 0.00 63 1024.2
20260905175504 18 274 8.0 11.3 0.00 0.00 0.00 62 1024.2
20260905175005 18 265 8.0 12.9 0.00 0.00 0.00 62 1024.1
20260905174504 18 275 6.4 14.5 0.00 0.00 0.00 60 1024.1
20260905174004 18 275 9.7 14.5 0.00 0.00 0.00 59 1024.1
20260905173504 19 275 6.4 12.9 0.00 0.00 0.00 59 1024.1
20260905172503 20 276 8.0 14.5 0.00 0.00 0.00 57 1024.0
20260905172003 20 286 6.4 14.5 0.00 0.00 0.00 56 1024.0
20260905171504 20 239 9.7 16.1 0.00 0.00 0.00 56 1024.1
20260905171004 20 258 9.7 19.3 0.00 0.00 0.00 56 1024.1
20260905170504 20 271 6.4 14.5 0.00 0.00 0.00 57 1024.0
20260905170004 20 210 6.4 14.5 0.00 0.00 0.00 57 1023.9
20260905165504 20 260 8.0 16.1 0.00 0.00 0.00 56 1023.9
20260905164503 20 250 12.9 19.3 0.00 0.00 0.00 55 1024.0
20260905163504 20 243 11.3 19.3 0.00 0.00 0.00 55 1024.0
20260905163004 20 217 8.0 14.5 0.00 0.00 0.00 56 1024.0
20260905162504 20 232 6.4 12.9 0.00 0.00 0.00 56 1023.9
20260905162004 20 254 9.7 16.1 0.00 0.00 0.00 56 1023.9
20260905161503 20 212 8.0 16.1 0.00 0.00 0.00 55 1023.9
20260905161003 20 256 6.4 16.1 0.00 0.00 0.00 56 1024.0
20260905160505 20 240 4.8 14.5 0.00 0.00 0.00 56 1024.0
20260905160003 20 243 9.7 16.1 0.00 0.00 0.00 55 1024.0
20260905155504 20 250 8.0 14.5 0.00 0.00 0.00 55 1024.0
20260905154503 20 233 9.7 19.3 0.00 0.00 0.00 55 1024.1
20260905154004 21 223 9.7 19.3 0.00 0.00 0.00 54 1024.0
20260905153504 21 254 12.9 19.3 0.00 0.00 0.00 56 1024.0
20260905153003 21 291 9.7 14.5 0.00 0.00 0.00 57 1024.0
20260905152503 21 265 8.0 14.5 0.00 0.00 0.00 57 1023.9
20260905152004 21 249 4.8 12.9 0.00 0.00 0.00 56 1024.0
20260905151504 21 256 11.3 19.3 0.00 0.00 0.00 56 1024.1
20260905150503 21 282 14.5 20.9 0.00 0.00 0.00 56 1024.3
20260905150004 21 260 14.5 20.9 0.00 0.00 0.00 56 1024.3
20260905145503 21 246 11.3 19.3 0.00 0.00 0.00 57 1024.4
20260905144504 20 235 11.3 22.5 0.00 0.00 0.00 56 1024.3
20260905143504 20 238 9.7 20.9 0.00 0.00 0.00 58 1024.3
20260905143004 20 267 9.7 19.3 0.00 0.00 0.00 57 1024.4
20260905142504 20 290 11.3 24.1 0.00 0.00 0.00 57 1024.5
20260905141503 20 233 11.3 22.5 0.00 0.00 0.00 56 1024.5
20260905141004 20 249 12.9 19.3 0.00 0.00 0.00 59 1024.5
20260905140503 20 276 9.7 19.3 0.00 0.00 0.00 59 1024.6
20260905140004 20 293 8.0 19.3 0.00 0.00 0.00 59 1024.5
20260905135503 20 226 6.4 16.1 0.00 0.00 0.00 57 1024.5
20260905135004 20 256 9.7 20.9 0.00 0.00 0.00 57 1024.5
20260905134504 20 241 8.0 14.5 0.00 0.00 0.00 58 1024.5
20260905134003 20 266 11.3 20.9 0.00 0.00 0.00 57 1024.5
20260905133003 20 274 11.3 22.5 0.00 0.00 0.00 58 1024.5
20260905132004 21 277 14.5 22.5 0.00 0.00 0.00 58 1024.5
20260905131503 20 274 14.5 29.0 0.00 0.00 0.00 56 1024.4
20260905131003 21 251 16.1 22.5 0.00 0.00 0.00 55 1024.4
20260905130504 21 204 9.7 19.3 0.00 0.00 0.00 55 1024.4
20260905130004 21 280 11.3 22.5 0.00 0.00 0.00 56 1024.3
20260905125504 21 254 11.3 19.3 0.00 0.00 0.00 55 1024.3
20260905125003 21 249 12.9 22.5 0.00 0.00 0.00 57 1024.2
20260905124503 20 297 8.0 16.1 0.00 0.00 0.00 60 1024.2
20260905124003 20 184 9.7 19.3 0.00 0.00 0.00 58 1024.1
20260905123504 20 203 12.9 19.3 0.00 0.00 0.00 56 1024.1
20260905123003 20 228 14.5 20.9 0.00 0.00 0.00 56 1024.2
20260905122004 20 256 11.3 19.3 0.00 0.00 0.00 56 1024.2
20260905121504 20 212 8.0 19.3 0.00 0.00 0.00 59 1024.1
20260905121004 20 202 9.7 22.5 0.00 0.00 0.00 58 1024.2
20260905120003 20 280 8.0 19.3 0.00 0.00 0.00 60 1024.0
20260905115503 19 237 9.7 19.3 0.00 0.00 0.00 61 1024.0
20260905115004 18 281 6.4 12.9 0.00 0.00 0.00 62 1023.9
20260905114004 19 280 9.7 16.1 0.00 0.00 0.00 59 1024.0
20260905113004 20 283 11.3 20.9 0.00 0.00 0.00 57 1024.1
20260905112504 20 301 11.3 19.3 0.00 0.00 0.00 58 1024.1
20260905112004 20 277 12.9 19.3 0.00 0.00 0.00 58 1024.1
20260905111504 20 235 9.7 20.9 0.00 0.00 0.00 58 1024.2
20260905111004 20 265 8.0 19.3 0.00 0.00 0.00 59 1024.2
20260905110504 19 257 8.0 12.9 0.00 0.00 0.00 61 1024.2
20260905110004 18 261 9.7 19.3 0.00 0.00 0.00 59 1024.3
20260905105503 19 310 6.4 16.1 0.00 0.00 0.00 59 1024.2
20260905105003 19 292 11.3 19.3 0.00 0.00 0.00 58 1024.3
20260905104003 19 224 6.4 14.5 0.00 0.00 0.00 57 1024.2
20260905103504 19 251 9.7 16.1 0.00 0.00 0.00 59 1024.3
20260905103004 19 230 4.8 19.3 0.00 0.00 0.00 60 1024.3
20260905102503 18 278 9.7 19.3 0.00 0.00 0.00 62 1024.3
20260905102004 18 274 8.0 14.5 0.00 0.00 0.00 63 1024.3
20260905101504 18 254 6.4 16.1 0.00 0.00 0.00 65 1024.3
20260905101004 17 209 6.4 11.3 0.00 0.00 0.00 64 1024.2
20260905100504 18 279 6.4 14.5 0.00 0.00 0.00 64 1024.3
20260905095504 18 352 6.4 9.7 0.00 0.00 0.00 64 1024.2
20260905095004 18 355 4.8 9.7 0.00 0.00 0.00 66 1024.2
20260905094504 18 345 4.8 11.3 0.00 0.00 0.00 64 1024.1
20260905094003 18 348 4.8 11.3 0.00 0.00 0.00 66 1024.0
20260905093503 18 288 4.8 9.7 0.00 0.00 0.00 66 1024.0
20260905093003 18 306 8.0 12.9 0.00 0.00 0.00 65 1023.9
20260905092504 18 270 12.9 19.3 0.00 0.00 0.00 65 1023.8
20260905092004 18 272 9.7 22.5 0.00 0.00 0.00 64 1023.8
20260905091503 17 268 11.3 19.3 0.00 0.00 0.00 66 1023.8
20260905091003 17 278 11.3 19.3 0.00 0.00 0.00 67 1023.7
20260905090504 17 301 3.2 12.9 0.00 0.00 0.00 70 1023.8
20260905090004 17 276 4.8 14.5 0.00 0.00 0.00 68 1023.7
20260905085503 17 283 4.8 16.1 0.00 0.00 0.00 69 1023.6